Погода Новая Ушица

Погода Новая Ушица : погода сейчас, прогноз погоды и архив. Всё, что Вы хотите узнать о погоде Новая Ушица!

Поиск расширенной информации на нашем сайте:

Другие новости

Новости СМИ2

Главная страница сайта

Новости сайта

03.07.2017

Напоминаем, что на нашем специализированном сайте Метеоцентр.Азия вы можете получить высокодетализированные автоматические прогнозы погоды по пунктам России, СНГ и мира в авиационном формате (включающие направление и скорость ветра, видимость, явления погоды, количество и форму облачности, нижнюю и верхнюю границу облачности).


Погода Новая Ушица - сегодня

Время (UTC), дата Ветер
(°,м/с) 
Видим.   Явления Облачность Т
(°С)
Тd
(°С)
f(%) Тe
(°С)
Pmin
(гПа)
dP
(гПа)
Po
(мм)
O2
(г/м3)
Тmin Tmax R s Состояние
почвы
09 26.11.17 140 (ЮВ) 12000 м    9/5 600 м средняя 
[Sc|Ac und]
+5.9 +4.3 89 +5  1015.8  0.3  735  288           
09 29.11.17 170 (Ю) 0600 м  туман{ливн. осадки}  ?/?  
+0.4 +0.4 100 +1  1014.4  0.2  734  294           
15 29.11.17 160 (Ю) н/о  туман  ?/?  
+1.3 +1.3 100 +2  1014.6  0.8  734  293           
21 29.11.17 150 (ЮВ) н/о  туман  ?/?  
+1.9 +1.9 100 +1  1015  0.2  734  293           
09 30.11.17 130 (ЮВ) 20000 м    9/4 300 м кучево-дожд., средняя, верхняя 
[Cb calv|Ac cuf|Ci fib]
+3.2 +0.6 83 +1  1010.4  -1.5  731  290           
15 30.11.17 130 (ЮВ) н/о    10/8 600 м кучево-дожд., средняя 
[Cb calv|Ac und]
+6 +3.7 85 +4  1004.6  -1.5  727  285           
21 01.12.17 360 (С) н/о    10/0 средняя 
[Ac As]
+0.8 -0.3 92 1019.2  0.9  737  295           
21 03.12.17 260 (З) н/о    10/10 600 м 
[Sc]
+0.3 -0.5 94 1016  -0.5  735  295           
09 04.12.17 290 (З) 55000 м    9/4 600 м средняя, верхняя 
[Sc|Ac cuf|Ci fib]
-0.6 -3.3 82 -2  1019.2  1.1  737  297           
15 04.12.17 210 (ЮЗ) н/о    9/0 средняя 
[Ac und]
-0.8 -3 85 -2  1017.9  -0.2  736  297           
21 04.12.17 260 (З) н/о    8/3 600 м кучево-дожд., средняя 
[Cb calv|Ac trans]
-0.9 -2.5 89 -3  1018.2  0.2  736  297           
15 05.12.17 300 (СЗ) н/о    9/8 600 м средняя 
[Sc|Ac lent]
+0.7 -3.6 73 -1  1022.7  1.4  740  297           
21 05.12.17 300 (СЗ) н/о    10/10 600 м 
[Sc]
-0.3 -3.3 80 -2  1022.5  -0.7  740  298           
09 07.12.17 270 (З) 50000 м    10/8 600 м средняя 
[Sc|Ac As]
+3.9 +1.9 87 +1  1019.1  0.4  737  292           
15 07.12.17 280 (З) н/о    8/0 средняя, верхняя 
[Ac trans|Ci fib]
+3.7 +0.9 82 +1  1018.9  0.2  737  292           
21 07.12.17 220 (ЮЗ) н/о    6/0 верхняя 
[Ci fib]
-0.3 -1.2 94 -1  1019.2  -0.2  737  297           
09 08.12.17 150 (ЮВ) 35000 м    8/0 верхняя 
[Ci fib]
+2.5 +0.1 84 +2  1015.5  -0.2  735  293           
15 08.12.17 150 (ЮВ) н/о    ясно 
+3.1 -0.4 78 +3  1012.9  -0.3  733  291           
21 08.12.17 150 (ЮВ) н/о    ясно 
+0.1 -1.3 90 +1  1012.2  -0.1  732  294           
09 09.12.17 100 (В) 17000 м    9/3 600 м средняя, верхняя 
[Sc|Ac und|Cc]
+3 -0.2 79 +2  1007.3  -0.8  729  290           
15 09.12.17 100 (В) н/о    8/1 600 м средняя, верхняя 
[Sc|Ac und|Ci fib]
+2.5 +0.7 88 +2  1005  -0.4  727  289           
21 09.12.17 170 (Ю) н/о    10/0 средняя 
[Ac As]
+1 -0.4 90 1003.3  -0.2  726  291           
15 10.12.17 280 (З) н/о    10/8 600 м средняя 
[Sc|Ac und]
-0.4 -2.8 84 -3  1007  0.5  728  293           
21 10.12.17 180 (Ю) н/о    4/0 средняя, верхняя 
[Ac As|Ci fib]
-4.3 -5.5 91 -6  1009.3  0.1  730  299           
09 11.12.17 170 (Ю) н/о    9/3 600 м средняя, верхняя 
[Sc|Ac und|Ci fib]
+0.4 -3.3 76 -1  1008.9  0.6  730  293           
Время (UTC), дата Ветер
(°,м/с) 
Видим.   Явления Облачность Т
(°С)
Тd
(°С)
f(%) Тe
(°С)
Pmin
(гПа)
dP
(гПа)
Po
(мм)
O2
(г/м3)
Тmin Tmax R s Состояние
почвы

Для получения пояснительной информации подведите курсор к названию столбца.

ПОГОДА Новая Ушица - архив

Всё, что Вы хотите узнать о погоде Новая Ушица - удобно и подробно!

Выберите нужную дату (начиная с 1 января 2015* года) и нажмите кнопку "Найти".
Будут отображены архивные сводки погоды по пункту Новая Ушица, начиная с указанной даты.


Отображать данные в формате CSV (для использования в таблицах Excel)


Внимание! Наш архив погоды предназначен исключительно для личного некоммерческого использования в познавательных целях. Если Вам необходимы официальные справки о состоянии погоды (для производственных, юридических, коммерческих и т.п. целей), обращайтесь в органы Росгидромета.

*Примечание: данная дата относится к архиву по метеостанциям СССР (Россия, СНГ, Балтия).
Архив по метеостанциям Зарубежной Европы и Азии (кроме Китая) хранится 10 дней, по другим регионам земного шара (Китай, Африка, Америка, Австралия, Океания) - 1 день.

Новая Ушица - район местоположения метеостанции


Название, широта, долгота, высота метеостанции:
Новая Ушица 48.9°ш. 27.3°д. 290 м над ур. моря [Украина]

Дополнительная информация

В oтличие oт бoльшинства пoгoдных сайтoв мы публикуем пoдрoбную метеoинфoрмацию в детальнoм прoфессиoнальнoм фoрмате.

Характеристики температуры и влажнoсти вoздуха измеряются на высoте 2 м в тени вдали oт зданий и деревьев.
Скoрoсть ветра измеряется на высoте 10 м (на урoвне рoста челoвека скoрoсть ветра ниже в 1.5-2 раза). Если метеoстанция нахoдится в гoрoде или в лесу, тo скoрoсть ветра занижена на 2-4 м/с пo сравнению с oткрытым местoм. Скoрoсть ветра над акватoриями крупных рек и oзёр, а также на вершинах хoлмoв на 2-5 м/с выше, чем в oбычных услoвиях.
Атмoсфернoе давление в разных тoчках местнoсти мoжет значительнo oтличаться oт давления на метеoстанции, в зависимoсти oт услoвий рельефа (при пoдъёме на 10 м давление пoнижается примернo на 1 мм рт.ст.).